Weather History for KBGE - May, 2013

Change the Weather History Date:

Sunday, May 5, 2013

  Actual Average (KMAI) Record (KMAI)
Temperature  
Mean Temperature 60 °F 72 °F  
Max Temperature 77 °F 85 °F 107 °F (2000)
Min Temperature 44 °F 60 °F 44 °F (1997)
Degree Days  
Heating Degree Days 4    
Month to date heating degree days  
Since 1 July heating degree days  
Cooling Degree Days 0    
Month to date cooling degree days  
Year to date cooling degree days  
Growing Degree Days 10 (Base 50)    
Moisture  
Dew Point 48 °F    
Average Humidity 67    
Maximum Humidity 100    
Minimum Humidity 31    
Precipitation  
Precipitation 0.00 in 0.07 in 0.33 in (2005)
Month to date precipitation 0.31  
Year to date precipitation 19.54  
Sea Level Pressure  
Sea Level Pressure 29.86 in    
Wind  
Wind Speed 8 mph (West)    
Max Wind Speed 23 mph    
Max Gust Speed 29 mph    
Visibility 10 miles    
Events Thunderstorm    
T = Trace of Precipitation, MM = Missing Value Source: NWS Daily Summary

Daily Weather History Graph

Daily Weather History Graph

Search for Another Location

Airport or City:

Trip Planner

Search our weather history database for the weather conditions in past years. The results will help you decide how hot, cold, wet, or windy it might be!

Date:

Astronomy

May. 05, 2013 Rise Set
Actual Time 6:50 AM EDT 8:20 PM EDT
Civil Twilight 6:24 AM EDT 8:46 PM EDT
Nautical Twilight 5:53 AM EDT 9:17 PM EDT
Astronomical Twilight 5:21 AM EDT 9:49 PM EDT
Moon 4:03 AM EDT (5/5) 4:33 PM EDT (5/5)
Length of Visible Light 14h 21m
Length of Day
13h 29m
Waning Crescent, 18% of the Moon is Illuminated
May 5
Waning Crescent
May 9
New
May 18
First Quarter
May 25
Full
May 31
Last Quarter

Hourly Weather History & Observations

Time (EDT) Temp. Windchill Dew Point Humidity Pressure Visibility Wind Dir Wind Speed Gust Speed Precip Events Conditions
12:15 AM 51.8 °F - 50.0 °F 94% 29.88 in 10.0 mi WNW 6.9 mph - N/A   Clear
12:35 AM 51.8 °F - 50.0 °F 94% 29.88 in 10.0 mi WNW 6.9 mph - N/A   Clear
12:55 AM 51.8 °F - 50.0 °F 94% 29.88 in 10.0 mi WNW 8.1 mph - N/A   Clear
1:15 AM 51.8 °F - 50.0 °F 94% 29.87 in 10.0 mi WNW 8.1 mph - N/A   Clear
1:35 AM 51.8 °F - 50.0 °F 94% 29.87 in 10.0 mi WNW 9.2 mph - N/A   Clear
1:55 AM 51.8 °F - 50.0 °F 94% 29.87 in 10.0 mi WNW 8.1 mph - N/A Thunderstorm Clear
2:15 AM 51.8 °F - 50.0 °F 94% 29.87 in 10.0 mi WNW 9.2 mph - N/A   Clear
2:35 AM 50.0 °F - 46.4 °F 87% 29.86 in 10.0 mi West 9.2 mph - N/A   Clear
2:55 AM 50.0 °F - 46.4 °F 87% 29.85 in 10.0 mi WNW 4.6 mph - N/A   Clear
3:15 AM 50.0 °F - 46.4 °F 87% 29.85 in 10.0 mi West 4.6 mph - N/A   Clear
3:35 AM 48.2 °F - 46.4 °F 93% 29.85 in 10.0 mi WNW 5.8 mph - N/A   Clear
3:55 AM 46.4 °F 44.3 °F 44.6 °F 93% 29.84 in 10.0 mi WNW 4.6 mph - N/A   Clear
4:15 AM 46.4 °F 44.3 °F 44.6 °F 93% 29.85 in 10.0 mi West 4.6 mph - N/A   Clear
4:35 AM 46.4 °F 44.3 °F 44.6 °F 93% 29.85 in 10.0 mi West 4.6 mph - N/A   Clear
4:55 AM 46.4 °F 44.3 °F 44.6 °F 93% 29.85 in 10.0 mi West 4.6 mph - N/A   Clear
5:15 AM 46.4 °F 45.2 °F 44.6 °F 93% 29.85 in 10.0 mi West 3.5 mph - N/A   Clear
5:35 AM 44.6 °F 41.4 °F 44.6 °F 100% 29.86 in 10.0 mi West 5.8 mph - N/A   Clear
5:55 AM 46.4 °F 44.3 °F 44.6 °F 93% 29.87 in 10.0 mi West 4.6 mph - N/A   Clear
6:15 AM 46.4 °F 44.3 °F 44.6 °F 93% 29.87 in 10.0 mi West 4.6 mph - N/A   Clear
6:35 AM 46.4 °F 45.2 °F 44.6 °F 93% 29.88 in 10.0 mi West 3.5 mph - N/A   Clear
6:55 AM 44.6 °F 43.1 °F 44.6 °F 100% 29.88 in 10.0 mi West 3.5 mph - N/A   Clear
7:15 AM 46.4 °F - 44.6 °F 93% 29.89 in 10.0 mi Calm Calm - N/A   Clear
7:35 AM 46.4 °F 45.2 °F 44.6 °F 93% 29.89 in 10.0 mi WNW 3.5 mph - N/A   Clear
7:55 AM 50.0 °F - 46.4 °F 87% 29.90 in 10.0 mi West 4.6 mph - N/A   Clear
8:15 AM 51.8 °F - 48.2 °F 88% 29.91 in 10.0 mi West 4.6 mph - N/A   Clear
8:35 AM 51.8 °F - 46.4 °F 82% 29.91 in 10.0 mi West 3.5 mph - N/A   Clear
8:55 AM 53.6 °F - 48.2 °F 82% 29.91 in 10.0 mi WNW 4.6 mph - N/A   Clear
9:15 AM 57.2 °F - 50.0 °F 77% 29.92 in 10.0 mi WNW 4.6 mph - N/A   Clear
9:35 AM 57.2 °F - 46.4 °F 67% 29.91 in 10.0 mi Calm Calm - N/A   Clear
9:55 AM 59.0 °F - 48.2 °F 67% 29.92 in 10.0 mi Calm Calm - N/A   Clear
10:15 AM 60.8 °F - 48.2 °F 63% 29.91 in 10.0 mi West 3.5 mph - N/A   Clear
10:35 AM 62.6 °F - 46.4 °F 55% 29.91 in 10.0 mi NNW 3.5 mph - N/A   Clear
10:55 AM 62.6 °F - 46.4 °F 55% 29.91 in 10.0 mi WNW 3.5 mph - N/A   Clear
11:15 AM 64.4 °F - 46.4 °F 52% 29.91 in 10.0 mi Calm Calm - N/A   Clear
11:35 AM 68.0 °F - 48.2 °F 49% 29.91 in 10.0 mi WSW 8.1 mph - N/A   Clear
11:55 AM 68.0 °F - 50.0 °F 52% 29.91 in 10.0 mi WSW 10.4 mph - N/A   Clear
12:15 PM 69.8 °F - 51.8 °F 53% 29.90 in 10.0 mi West 11.5 mph - N/A   Clear
12:35 PM 69.8 °F - 51.8 °F 53% 29.89 in 10.0 mi WSW 6.9 mph - N/A   Clear
12:55 PM 71.6 °F - 53.6 °F 53% 29.88 in 10.0 mi WSW 6.9 mph 16.1 mph N/A   Clear
1:15 PM 71.6 °F - 53.6 °F 53% 29.87 in 10.0 mi WSW 8.1 mph - N/A   Clear
1:35 PM 71.6 °F - 53.6 °F 53% 29.87 in 10.0 mi SW 5.8 mph - N/A   Clear
2:15 PM 71.6 °F - 53.6 °F 53% 29.86 in 10.0 mi SW 9.2 mph - N/A   Scattered Clouds
2:35 PM 71.6 °F - 53.6 °F 53% 29.85 in 10.0 mi SW 15.0 mph 21.9 mph N/A   Scattered Clouds
2:55 PM 73.4 °F - 55.4 °F 53% 29.85 in 10.0 mi SSW 13.8 mph 21.9 mph N/A   Clear
3:15 PM 73.4 °F - 55.4 °F 53% 29.84 in 10.0 mi SW 16.1 mph 23.0 mph N/A   Clear
3:35 PM 73.4 °F - 55.4 °F 53% 29.83 in 10.0 mi SSW 13.8 mph 21.9 mph N/A   Scattered Clouds
3:55 PM 73.4 °F - 55.4 °F 53% 29.82 in 10.0 mi South 13.8 mph 25.3 mph N/A   Scattered Clouds
4:15 PM 73.4 °F - 55.4 °F 53% 29.81 in 10.0 mi SSW 18.4 mph 25.3 mph N/A   Scattered Clouds
4:35 PM 71.6 °F - 57.2 °F 60% 29.81 in 10.0 mi SSW 16.1 mph 21.9 mph N/A   Clear
4:55 PM 73.4 °F - 59.0 °F 61% 29.80 in 10.0 mi SSW 15.0 mph 23.0 mph N/A   Clear
5:15 PM 71.6 °F - 57.2 °F 60% 29.79 in 10.0 mi SSW 16.1 mph 20.7 mph N/A   Clear
5:35 PM 77.0 °F - 50.0 °F 39% 29.79 in 10.0 mi SW 19.6 mph 26.5 mph N/A   Clear
5:55 PM 77.0 °F - 46.4 °F 34% 29.80 in 10.0 mi WSW 16.1 mph 26.5 mph N/A   Clear
6:15 PM 73.4 °F - 42.8 °F 33% 29.80 in 10.0 mi SW 16.1 mph 28.8 mph N/A   Clear
6:35 PM 73.4 °F - 42.8 °F 33% 29.80 in 10.0 mi WSW 23.0 mph 27.6 mph N/A   Clear
6:55 PM 73.4 °F - 41.0 °F 31% 29.79 in 10.0 mi SW 17.3 mph 25.3 mph N/A   Clear
7:15 PM 71.6 °F - 41.0 °F 33% 29.80 in 10.0 mi WSW 10.4 mph 19.6 mph N/A   Clear
7:35 PM 71.6 °F - 42.8 °F 35% 29.80 in 10.0 mi SW 13.8 mph 18.4 mph N/A   Clear
7:55 PM 69.8 °F - 42.8 °F 38% 29.80 in 10.0 mi SW 10.4 mph 16.1 mph N/A   Clear
8:15 PM 68.0 °F - 42.8 °F 40% 29.81 in 10.0 mi SW 9.2 mph - N/A   Clear
8:35 PM 66.2 °F - 42.8 °F 43% 29.82 in 10.0 mi WSW 8.1 mph - N/A   Clear
8:55 PM 64.4 °F - 46.4 °F 52% 29.85 in 10.0 mi NW 15.0 mph 26.5 mph N/A   Scattered Clouds
9:15 PM 64.4 °F - 46.4 °F 52% 29.86 in 10.0 mi NW 12.7 mph - N/A   Scattered Clouds
9:35 PM 62.6 °F - 46.4 °F 55% 29.87 in 10.0 mi NW 12.7 mph - N/A   Scattered Clouds
9:55 PM 62.6 °F - 46.4 °F 55% 29.88 in 10.0 mi NW 10.4 mph - N/A   Clear
10:35 PM 60.8 °F - 44.6 °F 55% 29.90 in 10.0 mi WNW 12.7 mph 17.3 mph N/A   Mostly Cloudy
10:55 PM 59.0 °F - 42.8 °F 55% 29.91 in 10.0 mi WNW 12.7 mph - N/A   Scattered Clouds
11:15 PM 59.0 °F - 44.6 °F 59% 29.91 in 10.0 mi WNW 8.1 mph - N/A   Clear
11:35 PM 59.0 °F - 44.6 °F 59% 29.91 in 10.0 mi WNW 11.5 mph - N/A   Clear
11:55 PM 59.0 °F - 42.8 °F 55% 29.92 in 10.0 mi NW 12.7 mph - N/A   Clear